BRISAT

Last updated on Sun Jun 21 2026 00:03:06 GMT+0000 (Coordinated Universal Time)

1 41591U 16039A 26170.99403676 -.00000202 00000+0 00000+0 0 9992 2 41591 0.0185 322.1151 0001992 117.0863 337.3513 1.00270455 36635
UTC large
Height (km)
Speed (km/s)
/
Latitude / Longitude
Inclination (degrees)
Orbital Period (minutes)
Azimuth
Elevation
Range (km)
Doppler Factor

Next 0 passes for location: London (51.5072 / 0.1276)

No passes found over London.
BRISAT